When you browse on this site, cookies collect data to enhance your experience and personalize the content and advertising you see.
Visit our Privacy Policy to learn more. By continuing to use the site, you agree to this use of cookies and data.
EN

Hourly Weather Kulikov

Today, 25 September, Friday

Time Temperature Precipitation Wind Pressure Humidity
00:00 +15°C° 0 mm 2 mps 735 mmHg 84%
01:00 +15°C° 0 mm 2 mps 735 mmHg 84%
02:00 +15°C° 0 mm 2 mps 735 mmHg 87%
03:00 +15°C° 0 mm 2 mps 735 mmHg 87%
04:00 +15°C° 0 mm 2 mps 734 mmHg 86%
05:00 +15°C° 0 mm 2 mps 734 mmHg 86%
06:00 +14°C° 0 mm 3 mps 734 mmHg 83%
07:00 +16°C° 0 mm 3 mps 734 mmHg 81%
08:00 +17°C° 0 mm 3 mps 734 mmHg 77%
09:00 +19°C° 0 mm 3 mps 733 mmHg 70%
10:00 +21°C° 0 mm 4 mps 733 mmHg 63%
11:00 +23°C° 0 mm 4 mps 733 mmHg 57%
12:00 +23°C° 0 mm 4 mps 732 mmHg 54%
13:00 +25°C° 0 mm 4 mps 732 mmHg 51%
14:00 +26°C° 0 mm 5 mps 732 mmHg 50%
15:00 +25°C° 0 mm 4 mps 731 mmHg 53%
16:00 +23°C° 0 mm 4 mps 731 mmHg 57%
17:00 +24°C° 0 mm 3 mps 730 mmHg 61%
18:00 +22°C° 0 mm 3 mps 730 mmHg 61%
19:00 +21°C° 0 mm 4 mps 729 mmHg 62%
20:00 +20°C° 0 mm 4 mps 729 mmHg 63%
21:00 +19°C° 0 mm 3 mps 729 mmHg 63%
22:00 +19°C° 0 mm 3 mps 728 mmHg 63%
23:00 +18°C° 0 mm 2 mps 728 mmHg 63%

Tomorrow, 26 September, Saturday

Time Temperature Precipitation Wind Pressure Humidity
00:00 +18°C° 0 mm 3 mps 728 mmHg 62%
01:00 +18°C° 0 mm 3 mps 727 mmHg 62%
02:00 +18°C° 0 mm 4 mps 727 mmHg 61%
03:00 +18°C° 0 mm 4 mps 727 mmHg 63%
04:00 +17°C° 0 mm 5 mps 726 mmHg 65%
05:00 +16°C° 0 mm 5 mps 726 mmHg 67%
06:00 +17°C° 0 mm 6 mps 726 mmHg 70%
07:00 +17°C° 0 mm 6 mps 725 mmHg 72%
08:00 +17°C° 0 mm 7 mps 725 mmHg 75%
09:00 +18°C° 0 mm 7 mps 725 mmHg 72%
10:00 +21°C° 0 mm 8 mps 725 mmHg 69%
11:00 +22°C° 0 mm 9 mps 726 mmHg 65%
12:00 +22°C° 0.2 mm 8 mps 725 mmHg 66%
13:00 +22°C° 0.2 mm 7 mps 725 mmHg 67%
14:00 +22°C° 0.2 mm 6 mps 725 mmHg 68%
15:00 +20°C° 3.1 mm 5 mps 725 mmHg 76%
16:00 +17°C° 3.1 mm 5 mps 725 mmHg 83%
17:00 +15°C° 3.1 mm 4 mps 725 mmHg 91%
18:00 +14°C° 3.1 mm 4 mps 725 mmHg 91%
19:00 +13°C° 3.1 mm 3 mps 725 mmHg 92%
20:00 +13°C° 3.1 mm 3 mps 725 mmHg 93%
21:00 +13°C° 4.5 mm 3 mps 725 mmHg 94%
22:00 +13°C° 4.5 mm 3 mps 725 mmHg 95%
23:00 +12°C° 4.5 mm 3 mps 725 mmHg 96%

Day after tomorrow, 27 September, Sunday

Time Temperature Precipitation Wind Pressure Humidity
00:00 +12°C° 2.9 mm 4 mps 725 mmHg 96%
01:00 +12°C° 2.9 mm 5 mps 725 mmHg 96%
02:00 +11°C° 2.9 mm 6 mps 725 mmHg 95%
03:00 +10°C° 1.9 mm 6 mps 725 mmHg 95%
04:00 +10°C° 1.9 mm 6 mps 725 mmHg 95%
05:00 +9°C° 1.9 mm 7 mps 725 mmHg 94%
06:00 +9°C° 2.1 mm 7 mps 725 mmHg 94%
07:00 +8°C° 2.1 mm 7 mps 726 mmHg 93%
08:00 +8°C° 2.1 mm 6 mps 727 mmHg 93%
09:00 +8°C° 0.4 mm 6 mps 728 mmHg 92%
10:00 +8°C° 0.4 mm 6 mps 729 mmHg 91%
11:00 +8°C° 0.4 mm 5 mps 730 mmHg 90%
12:00 +10°C° 0.3 mm 4 mps 731 mmHg 87%
13:00 +11°C° 0.3 mm 3 mps 732 mmHg 83%
14:00 +13°C° 0.3 mm 2 mps 733 mmHg 79%
15:00 +13°C° 0 mm 2 mps 733 mmHg 78%
16:00 +14°C° 0 mm 2 mps 734 mmHg 77%
17:00 +14°C° 0 mm 2 mps 734 mmHg 77%
18:00 +13°C° 0 mm 2 mps 735 mmHg 78%
19:00 +11°C° 0 mm 3 mps 735 mmHg 79%
20:00 +9°C° 0 mm 3 mps 736 mmHg 80%
21:00 +9°C° 0 mm 3 mps 736 mmHg 79%
22:00 +9°C° 0 mm 3 mps 737 mmHg 79%
23:00 +9°C° 0 mm 3 mps 738 mmHg 78%

28 September, Monday

Time Temperature Precipitation Wind Pressure Humidity
00:00 +9°C° 0 mm 3 mps 738 mmHg 79%
01:00 +8°C° 0 mm 3 mps 738 mmHg 79%
02:00 +8°C° 0 mm 3 mps 738 mmHg 79%
03:00 +8°C° 0 mm 2 mps 738 mmHg 79%
04:00 +8°C° 0 mm 2 mps 738 mmHg 80%
05:00 +8°C° 0 mm 2 mps 738 mmHg 80%
06:00 +8°C° 0 mm 2 mps 738 mmHg 79%
07:00 +9°C° 0 mm 2 mps 738 mmHg 79%
08:00 +10°C° 0 mm 2 mps 738 mmHg 79%
09:00 +12°C° 0 mm 3 mps 738 mmHg 77%
10:00 +13°C° 0 mm 4 mps 738 mmHg 75%
11:00 +15°C° 0 mm 5 mps 738 mmHg 73%
12:00 +17°C° 0 mm 4 mps 738 mmHg 70%
13:00 +18°C° 0 mm 4 mps 738 mmHg 68%
14:00 +19°C° 0 mm 4 mps 738 mmHg 65%
15:00 +18°C° 0 mm 3 mps 737 mmHg 68%
16:00 +18°C° 0 mm 3 mps 737 mmHg 71%
17:00 +17°C° 0 mm 3 mps 736 mmHg 74%
18:00 +17°C° 0.2 mm 3 mps 736 mmHg 78%
19:00 +16°C° 0.2 mm 3 mps 735 mmHg 83%
20:00 +14°C° 0.2 mm 3 mps 735 mmHg 87%
21:00 +14°C° 0.3 mm 3 mps 735 mmHg 88%
22:00 +14°C° 0.3 mm 3 mps 735 mmHg 90%
23:00 +14°C° 0.3 mm 3 mps 735 mmHg 91%

29 September, Tuesday

Time Temperature Precipitation Wind Pressure Humidity
00:00 +14°C° 0.2 mm 3 mps 735 mmHg 92%
01:00 +15°C° 0.2 mm 2 mps 734 mmHg 93%
02:00 +15°C° 0.2 mm 2 mps 734 mmHg 93%
03:00 +14°C° 2 mm 1 mps 734 mmHg 95%
04:00 +14°C° 2 mm 1 mps 733 mmHg 96%
05:00 +14°C° 2 mm 1 mps 733 mmHg 97%
06:00 +14°C° 2.5 mm 2 mps 733 mmHg 97%
07:00 +12°C° 2.5 mm 3 mps 733 mmHg 97%
08:00 +12°C° 2.5 mm 4 mps 733 mmHg 96%
09:00 +12°C° 1 mm 4 mps 733 mmHg 96%
10:00 +12°C° 1 mm 5 mps 733 mmHg 95%
11:00 +12°C° 1 mm 5 mps 733 mmHg 95%
12:00 +12°C° 0.3 mm 5 mps 733 mmHg 94%
13:00 +10°C° 0.3 mm 5 mps 733 mmHg 94%
14:00 +10°C° 0.3 mm 6 mps 733 mmHg 94%
15:00 +10°C° 0.3 mm 5 mps 733 mmHg 94%
16:00 +10°C° 0.3 mm 5 mps 733 mmHg 93%
17:00 +12°C° 0.3 mm 5 mps 733 mmHg 93%
18:00 +12°C° 0.4 mm 5 mps 733 mmHg 94%
19:00 +12°C° 0.4 mm 5 mps 733 mmHg 94%
20:00 +12°C° 0.4 mm 5 mps 733 mmHg 94%
21:00 +11°C° 0.4 mm 6 mps 732 mmHg 94%
22:00 +11°C° 0.4 mm 6 mps 732 mmHg 94%
23:00 +11°C° 0.4 mm 6 mps 732 mmHg 94%

30 September, Wednesday

Time Temperature Precipitation Wind Pressure Humidity
00:00 +10°C° 0.5 mm 6 mps 731 mmHg 94%
01:00 +10°C° 0.5 mm 6 mps 731 mmHg 94%
02:00 +10°C° 0.5 mm 6 mps 731 mmHg 94%
03:00 +10°C° 0.3 mm 5 mps 731 mmHg 94%
04:00 +10°C° 0.3 mm 5 mps 730 mmHg 94%
05:00 +10°C° 0.3 mm 5 mps 730 mmHg 94%
06:00 +11°C° 0.3 mm 4 mps 730 mmHg 94%
07:00 +11°C° 0.3 mm 4 mps 730 mmHg 94%
08:00 +11°C° 0.3 mm 4 mps 730 mmHg 94%
09:00 +12°C° 0.2 mm 3 mps 730 mmHg 94%
10:00 +12°C° 0.2 mm 3 mps 730 mmHg 93%
11:00 +12°C° 0.2 mm 3 mps 730 mmHg 93%
12:00 +12°C° 0.4 mm 3 mps 729 mmHg 92%
13:00 +12°C° 0.4 mm 3 mps 729 mmHg 92%
14:00 +12°C° 0.4 mm 3 mps 729 mmHg 91%
15:00 +12°C° 0.1 mm 3 mps 729 mmHg 92%
16:00 +11°C° 0.1 mm 3 mps 729 mmHg 92%
17:00 +11°C° 0.1 mm 3 mps 729 mmHg 92%
18:00 +11°C° 0 mm 3 mps 729 mmHg 93%
19:00 +12°C° 0 mm 2 mps 730 mmHg 94%
20:00 +10°C° 0 mm 2 mps 730 mmHg 94%
21:00 +10°C° 0 mm 2 mps 730 mmHg 95%
22:00 +10°C° 0 mm 2 mps 730 mmHg 95%
23:00 +10°C° 0 mm 2 mps 730 mmHg 95%
Show more